EW8829 Weather Reports


time (UTC)temp
C
wind
direction
speed
KPH
gust
KPH
rain 1hr
cm
rain 24hr
cm
rain mn
cm
humidity
%
barometer
mb
20260509151033 10 143 0.0 6.4 0.00 0.81 0.81 99 1008.0
20260509150530 10 296 1.6 4.8 0.00 0.81 0.81 99 1007.8
20260509150029 10 6 1.6 4.8 0.05 0.81 0.81 99 1007.7
20260509145524 10 87 1.6 3.2 0.05 0.81 0.81 99 1007.7
20260509145019 10 23 0.0 3.2 0.13 0.81 0.81 99 1008.0
20260509144516 10 77 1.6 3.2 0.18 0.81 0.81 99 1007.9
20260509144013 10 127 3.2 6.4 0.05 0.79 0.79 99 1008.2
20260509143510 10 111 1.6 3.2 0.05 0.76 0.76 99 1008.2
20260509143008 10 68 1.6 4.8 0.13 0.76 0.76 99 1008.1
20260509142504 10 121 0.0 3.2 0.13 0.76 0.76 99 1008.1
20260509141959 10 127 1.6 3.2 0.05 0.74 0.74 99 1008.1
20260509141455 9 177 1.6 3.2 0.05 0.74 0.74 99 1008.1
20260509140953 9 202 0.0 3.2 0.05 0.74 0.74 99 1008.1
20260509140449 9 113 1.6 3.2 0.13 0.74 0.74 99 1008.3
20260509135947 9 124 0.0 3.2 0.13 0.71 0.71 99 1008.1
20260509135444 9 33 0.0 3.2 0.13 0.71 0.71 99 1008.3
20260509134941 9 347 1.6 3.2 0.13 0.71 0.71 99 1008.0
20260509134439 9 336 0.0 3.2 0.05 0.69 0.69 99 1008.1
20260509133937 9 272 1.6 4.8 0.05 0.69 0.69 99 1008.3
20260509133433 9 120 1.6 3.2 0.13 0.69 0.69 99 1008.1
20260509132931 9 208 3.2 6.4 0.13 0.66 0.66 99 1008.3
20260509132429 8 171 0.0 4.8 0.13 0.66 0.66 99 1008.1
20260509131925 8 237 4.8 8.0 0.13 0.66 0.66 99 1008.4
20260509131423 8 310 3.2 4.8 0.05 0.64 0.64 99 1008.4
20260509130919 8 267 3.2 4.8 0.05 0.64 0.64 99 1008.3
20260509130414 8 184 0.0 4.8 0.05 0.61 0.61 99 1008.4
20260509125912 8 128 4.8 4.8 0.13 0.61 0.61 99 1008.4
20260509125409 8 82 0.0 3.2 0.13 0.61 0.61 99 1008.4
20260509124904 8 343 0.0 3.2 0.13 0.58 0.58 99 1008.2
20260509124402 8 12 0.0 4.8 0.18 0.58 0.58 99 1008.4
20260509123859 8 127 4.8 4.8 0.23 0.56 0.56 99 1008.4
20260509123356 8 48 4.8 4.8 0.23 0.56 0.56 99 1008.4
20260509122852 8 34 4.8 4.8 0.36 0.53 0.53 99 1008.6
20260509122349 7 58 4.8 4.8 0.30 0.51 0.51 99 1008.6
20260509121846 7 29 3.2 6.4 0.18 0.46 0.46 99 1008.8
20260509121343 7 100 1.6 4.8 0.23 0.46 0.46 99 1008.9
20260509120841 7 38 3.2 3.2 0.23 0.43 0.43 99 1008.7
20260509120339 7 75 1.6 4.8 0.18 0.43 0.43 99 1008.8
20260509115837 6 77 1.6 3.2 0.13 0.41 0.41 99 1008.9
20260509115333 6 70 3.2 3.2 0.13 0.38 0.38 99 1008.7
20260509114831 6 72 3.2 4.8 0.13 0.38 0.38 99 1008.8
20260509114330 6 50 3.2 3.2 0.18 0.38 0.38 99 1009.0
20260509113829 6 38 3.2 4.8 0.13 0.36 0.36 99 1008.7
20260509113325 6 76 3.2 4.8 0.13 0.33 0.33 99 1008.8
20260509112822 6 73 4.8 4.8 0.13 0.33 0.33 99 1008.7
20260509112319 6 72 3.2 3.2 0.18 0.33 0.33 99 1008.9
20260509111816 6 89 3.2 3.2 0.18 0.30 0.30 99 1008.8
20260509111313 6 95 3.2 4.8 0.18 0.28 0.28 99 1008.7
20260509110811 6 83 3.2 4.8 0.18 0.28 0.28 99 1008.7
20260509110307 6 87 3.2 3.2 0.18 0.25 0.25 99 1008.4
20260509105805 5 39 1.6 3.2 0.18 0.23 0.23 99 1008.6
20260509105306 5 51 0.0 3.2 0.23 0.23 0.23 99 1008.4
20260509104759 5 81 3.2 4.8 0.23 0.20 0.20 99 1008.4
20260509104256 5 74 3.2 3.2 0.18 0.18 0.18 99 1008.5
20260509103754 5 74 3.2 3.2 0.18 0.18 0.18 99 1008.6
20260509103251 5 63 3.2 3.2 0.18 0.15 0.15 99 1008.7
20260509102749 5 49 3.2 4.8 0.18 0.15 0.15 99 1008.7
20260509102246 5 89 4.8 4.8 0.13 0.13 0.13 99 1008.7
20260509101743 5 92 1.6 3.2 0.13 0.10 0.10 99 1008.8
20260509101239 5 97 1.6 3.2 0.05 0.10 0.10 99 1008.7
20260509100736 5 87 3.2 3.2 0.05 0.10 0.10 99 1008.4
20260509100233 5 45 3.2 4.8 0.13 0.10 0.10 99 1008.4
20260509095730 5 62 3.2 4.8 0.05 0.08 0.08 99 1008.3
20260509095227 5 59 3.2 3.2 0.00 0.08 0.08 99 1008.6
20260509094724 5 84 3.2 3.2 0.00 0.08 0.08 99 1008.6
20260509094221 5 81 3.2 3.2 0.00 0.08 0.08 99 1008.3
20260509093719 5 56 4.8 4.8 0.00 0.08 0.08 99 1008.2
20260509093216 5 38 4.8 4.8 0.00 0.08 0.08 99 1008.2
20260509092714 5 82 3.2 3.2 0.00 0.08 0.08 99 1008.6
20260509092212 5 72 1.6 3.2 0.00 0.08 0.08 99 1008.6
20260509091710 5 73 3.2 3.2 0.00 0.08 0.08 99 1008.5
20260509091205 5 62 3.2 3.2 0.00 0.08 0.08 99 1008.6
20260509090704 5 75 3.2 4.8 0.05 0.08 0.08 99 1008.5
20260509090200 5 57 1.6 3.2 0.05 0.08 0.08 99 1008.5
20260509085658 5 73 3.2 4.8 0.05 0.05 0.05 99 1008.5
20260509085154 5 69 3.2 3.2 0.05 0.05 0.05 99 1008.8
20260509084652 5 53 3.2 3.2 0.00 0.05 0.05 99 1008.8
20260509084148 5 78 3.2 3.2 0.00 0.05 0.05 99 1008.9
20260509083646 5 78 3.2 4.8 0.00 0.05 0.05 99 1008.7
20260509083142 5 60 3.2 4.8 0.00 0.05 0.05 99 1008.5
20260509082640 5 86 3.2 3.2 0.00 0.05 0.05 99 1008.8
20260509082136 5 89 0.0 3.2 0.05 0.05 0.05 99 1009.0
20260509081633 5 86 3.2 3.2 0.05 0.05 0.05 99 1008.8
20260509081131 5 34 0.0 1.6 0.00 0.05 0.05 99 1008.9
20260509080629 5 57 3.2 3.2 0.00 0.05 0.05 99 1008.9
20260509080126 5 50 1.6 3.2 0.00 0.05 0.05 99 1009.3
20260509075624 5 55 3.2 3.2 0.00 0.05 0.05 98 1009.3
20260509075121 5 61 3.2 3.2 0.00 0.05 0.05 98 1009.3
20260509074618 5 62 3.2 3.2 0.00 0.05 0.05 98 1009.2
20260509074115 5 87 1.6 3.2 0.00 0.05 0.05 98 1009.0
20260509073611 5 54 3.2 3.2 0.00 0.05 0.05 98 1009.0
20260509073108 5 56 3.2 3.2 0.00 0.05 0.05 98 1009.2
20260509072605 5 84 3.2 4.8 0.00 0.05 0.05 98 1009.0
20260509072101 5 61 1.6 3.2 0.00 0.05 0.05 98 1008.9
20260509071558 5 57 3.2 4.8 0.00 0.05 0.05 97 1008.9
20260509071055 5 79 3.2 3.2 0.05 0.05 0.05 97 1008.8
20260509070553 5 73 3.2 3.2 0.05 0.05 0.05 97 1008.8
20260509070049 5 59 3.2 3.2 0.00 0.03 0.03 96 1009.0
20260509065544 5 52 3.2 3.2 0.00 0.03 0.03 96 1009.0
20260509065041 5 67 3.2 3.2 0.00 0.03 0.03 96 1009.0
20260509064539 5 64 3.2 3.2 0.00 0.03 0.03 96 1009.1
20260509064037 5 67 3.2 3.2 0.05 0.03 0.03 95 1009.2
20260509063531 5 44 3.2 3.2 0.05 0.03 0.03 95 1009.3
20260509063029 5 54 3.2 3.2 0.00 0.03 0.03 95 1009.3
20260509062526 5 41 1.6 3.2 0.05 0.03 0.03 94 1009.3
20260509062024 5 62 3.2 3.2 0.05 0.03 0.03 94 1009.5
20260509061520 5 56 3.2 4.8 0.00 0.00 0.00 93 1009.5
20260509061018 5 52 3.2 3.2 0.05 0.00 0.00 93 1009.8
20260509060515 5 72 3.2 3.2 0.05 0.00 0.00 93 1009.5
20260509060011 5 65 3.2 3.2 0.00 0.00 0.00 92 1009.6
20260509055506 5 63 3.2 3.2 0.00 0.00 0.00 92 1009.7
20260509055003 5 27 1.6 3.2 0.00 0.00 0.00 92 1009.8
20260509054459 5 61 3.2 4.8 0.00 0.00 0.00 92 1009.7
20260509053957 5 50 3.2 4.8 0.00 0.00 0.00 91 1009.8
20260509053455 5 43 4.8 4.8 0.00 0.00 0.00 91 1009.9
20260509052952 5 40 3.2 3.2 0.00 0.00 0.00 91 1009.7
20260509052450 5 65 3.2 4.8 0.00 0.00 0.00 92 1009.8
20260509051947 5 72 3.2 3.2 0.00 0.00 0.00 92 1009.8
20260509051445 5 55 3.2 3.2 0.00 0.00 0.00 92 1009.8
20260509050942 5 55 3.2 3.2 0.00 0.00 0.00 92 1009.7
20260509050438 5 55 3.2 3.2 0.00 0.00 0.00 92 1009.8
20260509045935 5 41 3.2 4.8 0.00 0.00 0.00 91 1009.6
20260509045432 5 45 3.2 4.8 0.00 0.00 0.00 91 1009.6
20260509044929 5 41 3.2 4.8 0.00 0.00 0.00 91 1009.9
20260509044427 5 61 3.2 4.8 0.00 0.00 0.00 90 1009.9
20260509043924 5 74 3.2 4.8 0.00 0.00 0.00 90 1009.9
20260509043419 5 42 3.2 3.2 0.00 0.00 0.00 91 1009.8
20260509042915 5 67 3.2 4.8 0.00 0.00 0.00 91 1010.0
20260509042413 5 65 3.2 3.2 0.00 0.00 0.00 91 1009.9
20260509041909 5 44 3.2 3.2 0.00 0.00 0.00 92 1010.2
20260509041406 5 60 3.2 3.2 0.00 0.00 0.00 93 1010.4
20260509040904 5 57 3.2 3.2 0.00 0.00 0.00 92 1010.0
20260509040402 5 92 3.2 4.8 0.00 0.00 0.00 92 1010.2
20260509035859 5 86 3.2 3.2 0.00 0.00 0.00 91 1010.0
20260509035356 5 74 3.2 3.2 0.00 0.00 0.00 91 1010.2
20260509034852 4 60 3.2 3.2 0.00 0.00 0.00 91 1010.1
20260509034350 4 78 3.2 3.2 0.00 0.00 0.00 90 1010.1
20260509033847 5 73 3.2 3.2 0.00 0.00 0.00 90 1010.0
20260509033344 5 48 3.2 3.2 0.00 0.00 0.00 89 1010.2
20260509032840 4 294 1.6 3.2 0.00 0.00 0.00 90 1010.0
20260509032337 4 30 1.6 3.2 0.00 0.00 0.00 91 1010.0
20260509031836 4 83 3.2 3.2 0.00 0.00 0.00 90 1010.0
20260509031332 4 85 3.2 3.2 0.00 0.00 0.00 89 1010.0
20260509030830 4 49 0.0 1.6 0.00 0.00 0.00 89 1010.0
20260509030327 4 67 1.6 3.2 0.00 0.00 0.00 88 1010.0
20260509025824 5 72 3.2 3.2 0.00 0.00 0.00 88 1010.1
20260509025320 5 58 3.2 3.2 0.00 0.00 0.00 88 1010.2
20260509024815 5 61 3.2 4.8 0.00 0.00 0.00 87 1010.2
20260509024312 5 79 1.6 1.6 0.00 0.00 0.00 85 1010.2
20260509023809 5 35 0.0 1.6 0.00 0.00 0.00 86 1010.0
20260509023306 5 13 0.0 1.6 0.00 0.00 0.00 85 1010.0
20260509022802 5 44 0.0 3.2 0.00 0.00 0.00 85 1010.0
20260509022300 6 81 3.2 3.2 0.00 0.00 0.00 84 1010.2
20260509021756 6 7 1.6 1.6 0.00 0.00 0.00 83 1010.1
20260509021254 6 47 1.6 4.8 0.00 0.00 0.00 83 1010.1
20260509020751 6 31 4.8 4.8 0.00 0.00 0.00 83 1010.0
20260509020249 6 84 3.2 3.2 0.00 0.00 0.00 80 1010.0
20260509015747 6 3 1.6 1.6 0.00 0.00 0.00 81 1010.1
20260509015245 7 21 0.0 3.2 0.00 0.00 0.00 79 1010.0
20260509014741 7 74 1.6 3.2 0.00 0.00 0.00 79 1009.9
20260509014238 7 41 3.2 3.2 0.00 0.00 0.00 79 1009.9
20260509013734 7 38 0.0 3.2 0.00 0.00 0.00 78 1010.0
20260509013230 7 63 3.2 4.8 0.00 0.00 0.00 78 1010.1
20260509012727 7 24 1.6 3.2 0.00 0.00 0.00 78 1010.0
20260509012223 7 61 3.2 4.8 0.00 0.00 0.00 78 1009.7
20260509011721 7 100 3.2 3.2 0.00 0.00 0.00 77 1009.9
20260509011219 7 51 3.2 4.8 0.00 0.00 0.00 78 1009.7
20260509010716 7 26 3.2 3.2 0.00 0.00 0.00 78 1009.8
20260509010212 7 84 3.2 4.8 0.00 0.00 0.00 77 1009.5
20260509005710 7 124 0.0 3.2 0.00 0.00 0.00 76 1009.6
20260509005207 7 73 3.2 3.2 0.00 0.00 0.00 75 1009.4
20260509004702 8 26 1.6 3.2 0.00 0.00 0.00 73 1009.4
20260509004159 8 44 0.0 3.2 0.00 0.00 0.00 73 1009.3
20260509003658 8 81 1.6 3.2 0.00 0.00 0.00 71 1009.1
20260509003155 8 52 1.6 3.2 0.00 0.00 0.00 69 1009.2
20260509002652 8 36 1.6 3.2 0.00 0.00 0.00 71 1009.0
20260509002149 9 36 0.0 1.6 0.00 0.00 0.00 70 1009.2
20260509001647 9 72 1.6 3.2 0.00 0.00 0.00 68 1009.2
20260509001142 9 38 0.0 0.0 0.00 0.00 0.00 67 1009.1
20260509000641 9 40 3.2 3.2 0.00 0.00 0.00 65 1008.8
20260509000137 9 45 4.8 4.8 0.00 0.00 0.00 65 1008.9
20260508235635 10 31 1.6 1.6 0.00 0.00 0.00 64 1008.8
20260508235131 10 52 1.6 1.6 0.00 0.00 0.00 63 1008.9
20260508234629 10 59 3.2 3.2 0.00 0.00 0.00 62 1008.9
20260508234125 10 352 0.0 1.6 0.00 0.00 0.00 64 1008.6
20260508233624 10 355 1.6 3.2 0.00 0.00 0.00 64 1008.7
20260508233122 10 358 1.6 3.2 0.00 0.00 0.00 63 1008.7
20260508232618 10 24 1.6 3.2 0.00 0.00 0.00 63 1008.5
20260508232115 10 350 0.0 3.2 0.00 0.00 0.00 62 1008.4
20260508231613 11 31 3.2 3.2 0.00 0.00 0.00 61 1008.5
20260508231109 11 12 0.0 0.0 0.00 0.00 0.00 61 1008.7
20260508230606 11 315 0.0 1.6 0.00 0.00 0.00 61 1008.4
20260508225601 12 60 0.0 1.6 0.00 0.00 0.00 46 1008.4
20260508225057 12 94 1.6 3.2 0.00 0.00 0.00 47 1008.6
20260508224555 12 47 3.2 4.8 0.00 0.00 0.00 48 1008.6
20260508224051 12 77 3.2 4.8 0.00 0.00 0.00 49 1008.6
20260508223549 12 48 3.2 3.2 0.00 0.00 0.00 53 1008.6
20260508223046 12 352 0.0 3.2 0.00 0.00 0.00 52 1008.5
20260508222544 13 74 3.2 4.8 0.00 0.00 0.00 49 1008.6
20260508222041 13 31 6.4 6.4 0.00 0.00 0.00 48 1008.6
20260508221537 12 34 3.2 4.8 0.00 0.00 0.00 51 1008.5
20260508221033 12 61 3.2 4.8 0.00 0.00 0.00 50 1008.5
20260508220530 12 38 4.8 6.4 0.00 0.00 0.00 49 1008.8
20260508220026 12 81 4.8 4.8 0.00 0.00 0.00 47 1008.6
20260508215523 12 36 3.2 6.4 0.00 0.00 0.00 49 1008.7
20260508215020 12 31 3.2 3.2 0.00 0.00 0.00 54 1008.6
20260508214517 12 57 3.2 4.8 0.00 0.00 0.00 49 1008.7
20260508214013 12 17 6.4 6.4 0.00 0.00 0.00 48 1008.6
20260508213511 12 70 3.2 4.8 0.00 0.00 0.00 47 1008.6
20260508213006 12 39 3.2 8.0 0.00 0.00 0.00 47 1008.6
20260508212503 12 42 4.8 12.9 0.00 0.00 0.00 50 1008.6
20260508211959 12 12 4.8 4.8 0.00 0.00 0.00 48 1008.8
20260508211455 13 335 0.0 9.7 0.00 0.00 0.00 48 1008.8
20260508210952 13 34 6.4 12.9 0.00 0.00 0.00 47 1008.9
20260508210448 13 7 3.2 8.0 0.00 0.00 0.00 44 1008.7
20260508205945 14 155 3.2 4.8 0.00 0.00 0.00 42 1008.7
20260508205442 13 58 3.2 6.4 0.00 0.00 0.00 44 1008.8
20260508204938 13 31 3.2 6.4 0.00 0.00 0.00 46 1008.9
20260508204436 12 14 6.4 6.4 0.00 0.00 0.00 48 1009.0
20260508203931 13 101 4.8 9.7 0.00 0.00 0.00 47 1009.0
20260508203427 14 330 4.8 9.7 0.00 0.00 0.00 45 1008.9
20260508202923 13 47 3.2 4.8 0.00 0.00 0.00 46 1009.1
20260508202421 12 85 6.4 8.0 0.00 0.00 0.00 48 1009.0
20260508201918 12 67 8.0 8.0 0.00 0.00 0.00 47 1009.1
20260508201414 13 10 8.0 12.9 0.00 0.00 0.00 46 1009.2
20260508200911 13 48 6.4 9.7 0.00 0.00 0.00 45 1009.4
20260508200408 13 42 3.2 11.3 0.00 0.00 0.00 46 1009.2
20260508195903 13 300 8.0 8.0 0.00 0.00 0.00 47 1009.4
20260508195400 12 339 4.8 8.0 0.00 0.00 0.00 50 1009.4
20260508194856 12 258 8.0 9.7 0.00 0.00 0.00 45 1009.5
20260508194354 13 276 1.6 9.7 0.00 0.00 0.00 44 1009.6
20260508193851 13 55 3.2 14.5 0.00 0.00 0.00 46 1009.6
20260508193348 13 356 4.8 9.7 0.00 0.00 0.00 45 1009.7
20260508192844 13 21 3.2 9.7 0.00 0.00 0.00 49 1009.5
20260508192341 13 72 4.8 4.8 0.00 0.00 0.00 54 1009.8
20260508191838 13 58 6.4 8.0 0.00 0.00 0.00 50 1009.8
20260508191335 11 266 14.5 19.3 0.00 0.00 0.00 48 1010.0
20260508190832 12 88 6.4 9.7 0.00 0.00 0.00 47 1009.7
20260508190329 11 321 4.8 11.3 0.00 0.00 0.00 50 1009.9
20260508185825 11 63 9.7 9.7 0.00 0.00 0.00 54 1010.0
20260508185323 10 15 3.2 8.0 0.00 0.00 0.00 53 1010.1
20260508184820 11 285 6.4 14.5 0.00 0.00 0.00 54 1010.1
20260508184317 11 126 3.2 8.0 0.00 0.00 0.00 55 1010.4
20260508183814 11 29 8.0 11.3 0.00 0.00 0.00 54 1010.4
20260508183310 12 6 4.8 9.7 0.00 0.00 0.00 56 1010.6
20260508182806 11 357 3.2 8.0 0.00 0.00 0.00 55 1010.4
20260508182306 10 45 6.4 11.3 0.00 0.00 0.00 57 1010.6
20260508181759 10 44 4.8 6.4 0.00 0.00 0.00 60 1010.5
20260508181256 11 291 17.7 20.9 0.00 0.00 0.00 58 1010.5
20260508180753 11 29 6.4 9.7 0.00 0.00 0.00 62 1010.5
20260508180250 10 27 0.0 9.7 0.00 0.00 0.00 61 1010.8
20260508175746 10 39 6.4 9.7 0.00 0.00 0.00 62 1010.5
20260508175243 10 2 3.2 6.4 0.00 0.00 0.00 64 1010.6
20260508174741 10 17 6.4 9.7 0.00 0.00 0.00 62 1010.6
20260508174238 10 40 6.4 8.0 0.00 0.00 0.00 63 1010.6
20260508173734 10 5 8.0 17.7 0.00 0.00 0.00 66 1010.6
20260508173230 9 146 4.8 19.3 0.00 0.00 0.00 65 1010.8
20260508172727 10 290 4.8 30.6 0.00 0.00 0.00 63 1010.9
20260508172224 9 285 8.0 16.1 0.00 0.00 0.00 66 1010.8
20260508171720 9 55 3.2 4.8 0.00 0.00 0.00 72 1010.7
20260508171217 9 142 4.8 12.9 0.00 0.00 0.00 70 1011.1
20260508170714 10 344 3.2 9.7 0.00 0.00 0.00 67 1010.9
20260508170212 9 290 4.8 6.4 0.00 0.00 0.00 73 1010.8
20260508165708 8 115 6.4 8.0 0.00 0.00 0.00 75 1011.3
20260508165206 8 80 9.7 14.5 0.00 0.00 0.00 77 1011.3
20260508164702 8 13 3.2 6.4 0.00 0.00 0.00 78 1011.2
20260508164159 7 18 4.8 6.4 0.00 0.00 0.00 82 1010.9
20260508163656 7 73 8.0 9.7 0.00 0.00 0.00 80 1011.1
20260508163154 6 104 6.4 12.9 0.00 0.00 0.00 82 1011.3
20260508162649 6 68 6.4 16.1 0.00 0.00 0.00 85 1011.5
20260508162146 7 77 9.7 11.3 0.00 0.00 0.00 85 1011.4
20260508161643 6 119 11.3 14.5 0.00 0.00 0.00 84 1011.5
20260508161141 6 20 4.8 9.7 0.00 0.00 0.00 82 1011.3
20260508160639 6 25 6.4 6.4 0.00 0.00 0.00 84 1011.7
20260508160136 5 20 6.4 8.0 0.00 0.00 0.00 85 1011.4
20260508155628 6 44 6.4 8.0 0.00 0.00 0.00 87 1011.6
20260508155125 5 65 6.4 9.7 0.00 0.00 0.00 85 1011.6
20260508154621 6 33 6.4 6.4 0.00 0.00 0.00 87 1011.5
20260508154118 6 55 4.8 6.4 0.00 0.00 0.00 89 1010.9
20260508153615 6 73 6.4 8.0 0.00 0.00 0.00 89 1010.9
20260508153111 6 70 6.4 8.0 0.00 0.00 0.00 88 1010.9
20260508152609 6 61 4.8 6.4 0.00 0.00 0.00 87 1010.8
20260508152103 6 78 6.4 6.4 0.00 0.00 0.00 87 1010.6
20260508151600 6 53 4.8 8.0 0.00 0.00 0.00 88 1010.7